Regional Weather Roundup
Issued by NWS

Home | Current Version | Previous Version | Text Only | Print | Product List | Glossary Off
Versions: 1 2 3 4 5 6 7 8 9 10 11 12 13 14 15 16 17 18 19 20 21 22 23 24 25 26 27 28 29 30 31 32 33 34 35 36 37 38 39 40 41 42 43 44 45 46 47 48 49 50

000
ASUS43 KMPX 271210
RWRMN
WEATHER ROUNDUP FOR MINNESOTA
NATIONAL WEATHER SERVICE TWIN CITIES/CHANHASSEN MN
600 AM CST MON FEB 27 2017


NOTE: "FAIR" INDICATES FEW OR NO CLOUDS BELOW 12,000 FEET WITH NO
SIGNIFICANT WEATHER AND/OR OBSTRUCTIONS TO VISIBILITY. N/A MEANS
CURRENT SKY AND/OR WEATHER CONDITIONS ARE NOT AVAILABLE.

MNZ060>063-068>070-271300-
   Twin Cities Metro

CITY           SKY/WX    TMP DP  RH WIND       PRES   REMARKS
TWIN CITIES    CLEAR     23  18  81 SE6       29.95S WCI  16
6HR MIN TEMP:  22; 6HR MAX TEMP:  30;

ST PAUL        CLEAR     24  21  88 SE7       29.96F WCI  16
CRYSTAL        CLEAR     23  18  81 S5        29.93R WCI  17
BLAINE         CLEAR     25  21  86 S6        29.93S WCI  18
LAKEVILLE        N/A     23  19  86 S7        29.94S WCI  15
EDEN PRAIRIE   CLEAR     24  19  81 S8        29.93S WCI  15
6HR MIN TEMP:  23; 6HR MAX TEMP:  28;

SOUTH ST PAUL  CLEAR     24  20  82 S5        29.95S WCI  19
LAKE ELMO      FAIR      25  21  86 S5        29.96S WCI  19
$$
MNZ001>005-007-008-013>017-022>024-027-028-271300-
   Northwest Minnesota

CITY           SKY/WX    TMP DP  RH WIND       PRES   REMARKS
BEMIDJI        CLOUDY     1  -3  83 CALM      29.89S
HALLOCK        MOCLDY    10   9  92 S9        29.88S WCI  -2
ROSEAU         CLOUDY     7   1  78 S9        29.87S WCI  -7
WARROAD        CLOUDY     7   3  85 S5        29.87F WCI  -2
THIEF RVR FALL CLEAR      8   5  87 S7        29.90S WCI  -3
CROOKSTON      CLEAR     10   9  92 S6        29.92R WCI   1
FOSSTON        CLOUDY     9   3  78 SE3       29.90R
DETROIT LAKES  CLOUDY    19  14  79 CALM      29.89S
MOORHEAD       CLOUDY    19  12  73 CALM      29.92S
PARK RAPIDS    CLOUDY    18   9  68 SE5       29.88S WCI  11
MAHNOMEN       FAIR      13   9  85 SE3       29.89S
$$
MNZ006-009>011-018-025>026-271300-
   North Central Minnesota

CITY           SKY/WX    TMP DP  RH WIND       PRES   REMARKS
BAUDETTE       CLOUDY     4   0  83 S7        29.87S WCI  -8
FLAG ISLAND    CLOUDY     7   3  85 CALM      29.86R
INTL FALLS     CLOUDY     0  -4  83 CALM      29.90S
6HR MIN TEMP:   0; 6HR MAX TEMP:   8;

WASKISH        CLOUDY     7   3  85 CALM      29.89S
BIG FORK       CLOUDY    -4  -9  77 CALM      29.90F
LONGVILLE      CLOUDY    16  10  79 CALM      29.90S
GRAND RAPIDS   CLOUDY    11   6  81 CALM      29.92F
CRANE LAKE     CLEAR     -8  -9  92 CALM      29.95S
ORR            CLOUDY     1  -2  85 CALM      29.89S
COOK           CLOUDY    -6  -9  84 CALM      29.92S
WALKER         CLOUDY    13   9  82 CALM      29.89S
$$
MNZ012-019>021-037-271300-
   Northeast Minnesota

CITY           SKY/WX    TMP DP  RH WIND       PRES   REMARKS
DULUTH         CLOUDY    17   9  70 CALM      29.91F
6HR MIN TEMP:   4; 6HR MAX TEMP:  17;

ELY            CLOUDY    -8 -11  84 CALM      29.93S
HIBBING        CLOUDY     5   0  79 CALM      29.92S
EVELETH        CLOUDY     5   0  78 CALM      29.93S
DULUTH HARBOR  CLOUDY    19  10  68 CALM      29.98S
TWO HARBORS    CLOUDY    16   9  73 CALM      29.93S
SILVER BAY     CLOUDY    10   7  85 CALM      29.94S
GRAND MARAIS     N/A     17   0  47 NW6       30.00R WCI   9
G MARAIS ARPRT CLEAR     -8 -13  77 CALM      29.91S
$$
MNZ029>031-032-039>041-046>048-054>057-064-271300-
   West Central Minnesota

CITY           SKY/WX    TMP DP  RH WIND       PRES   REMARKS
FERGUS FALLS   MOCLDY    18  12  79 W3        29.93F
WHEATON        CLEAR     18  16  93 CALM      29.91S
MORRIS         CLEAR     18  16  93 E7        29.87R WCI   8
ALEXANDRIA     CLEAR     19  17  92 NE5       29.88R WCI  12
ELBOW LAKE     FAIR      18  15  88 NE5       29.88S WCI  11
WADENA         CLOUDY    16  10  79 E3        29.89R
GLENWOOD       CLEAR     16  14  93 E6        29.88S WCI   7
APPLETON       CLEAR    N/A N/A N/A CALM      29.87S
BENSON         PTCLDY    21  18  86 E5        29.89S WCI  15
ORTONVILLE       N/A     19  16  86 CALM      29.87F
MADISON        CLEAR     25  25 100 W3        29.88S
WILLMAR        FAIR      27  25  93 CALM      29.90R
$$
MNZ033>034-036-042>043-049>051-058-059-271300-
   Central Minnesota

CITY           SKY/WX    TMP DP  RH WIND       PRES   REMARKS
ST CLOUD       PTCLDY    22  19  89 E7        29.90F WCI  13
6HR MIN TEMP:  22; 6HR MAX TEMP:  26; 6HR PCP: TRACE;

SAUK CENTRE    FAIR      17  15  93 E3        29.89S
PAYNESVILLE    CLEAR     22  18  85 CALM      29.89S
AITKIN         CLOUDY    19  10  68 CALM      29.90S
PINE RIVER     CLOUDY    16  10  79 CALM      29.94S
BRAINERD       CLOUDY    18  12  77 N5        29.91S WCI  11
STAPLES        CLOUDY    16  10  79 CALM      29.90R
LONG PRAIRIE   CLOUDY    21  18  86 NE3       29.89R
LITTLE FALLS   PTCLDY    21  18  86 CALM      29.91R
LITCHFIELD     CLEAR     23  21  93 CALM      29.90S
BUFFALO        CLEAR     24  22  91 CALM      29.93R
MAPLE LAKE     CLEAR     22  22  97 CALM      29.92R
HUTCHINSON     MOCLDY    24  22  95 S5        29.92R WCI  18
$$
MNZ037-044-045-052-053-271300-
   East Central Minnesota

CITY           SKY/WX    TMP DP  RH WIND       PRES   REMARKS
PRINCETON      CLOUDY    25  19  80 E3        29.92S
MORA           CLOUDY    21  19  93 E3        29.95S
CAMBRIDGE      CLEAR     25  18  74 CALM      29.92S
RUSH CITY      CLOUDY    19  18  93 CALM      29.95R
MOOSE LAKE     CLOUDY    19  12  73 CALM      29.92S
HINCKLEY       CLOUDY    23  19  86 CALM      29.94S
CLOQUET        CLOUDY    16   9  73 CALM      29.92S
MCGREGOR       CLOUDY    19  12  73 E3        29.92S
$$
MNZ071>073-080-081-089-090-097-098-271300-
   Southwest Minnesota

CITY           SKY/WX    TMP DP  RH WIND       PRES   REMARKS
MONTEVIDEO     CLEAR     25  19  80 SW3       29.89F
GRANITE FALLS  CLEAR     26  22  84 S3        29.90S
CANBY          CLEAR     28  21  76 CALM      29.87S
MARSHALL       CLEAR     28  20  71 SW12      29.87S WCI  18
REDWOOD FALLS  CLEAR     26  20  77 SW6       29.90R WCI  19
OLIVIA         CLEAR     23  21  93 S3        29.89S
PIPESTONE      CLEAR     23  18  80 SE5       29.88S WCI  17
WINDOM         CLEAR     27  21  80 S9        29.92R WCI  17
WORTHINGTON    CLEAR     25  21  85 S12       29.92R WCI  14
JACKSON        CLEAR     27  19  74 S10       29.93S WCI  17
TRACY          CLEAR     28  23  79 SW16      29.89R WCI  17
SLAYTON        CLEAR     24  21  87 S12       29.90R WCI  13
$$
MNZ065>067-074>077-082>085-091>093-271300-
   South Central Minnesota

CITY           SKY/WX    TMP DP  RH WIND       PRES   REMARKS
MANKATO          N/A     19  16  88 S9        29.96R WCI   8
NEW ULM        CLEAR     25  19  80 S8        29.92R WCI  16
ST JAMES       CLEAR     25  21  86 S12       29.94R WCI  14
FAIRMONT       CLEAR     16  13  88 SW8       29.96R WCI   5
GLENCOE        CLEAR     26  24  94 S5        29.92R WCI  20
FARIBAULT      CLEAR     18  14  86 S7        29.96S WCI   8
OWATONNA       CLEAR     19  16  86 S14       29.95S WCI   6
WASECA         CLEAR     19  16  86 S9        29.97S WCI   9
ALBERT LEA     CLEAR     18  16  93 S5        29.97S WCI  11
$$
MNZ078>079-086>088-094>096-271300-
   Southeast Minnesota

CITY           SKY/WX    TMP DP  RH WIND       PRES   REMARKS
ROCHESTER      CLEAR     14  12  92 S8        29.98S WCI   3
6HR MIN TEMP:  11; 6HR MAX TEMP:  16;

RED WING       CLEAR     19  16  86 SE5       29.98S WCI  13
STANTON        CLEAR     21  16  79 S10       29.95S WCI  10
WINONA         CLEAR     18  16  93 CALM      30.05R
AUSTIN         CLEAR     16  12  86 S3        29.99R
PRESTON        CLEAR     20  18  89 S7        30.01R WCI  11
$$
ABBREVIATIONS USED IN REMARKS
   TC - TEMPERATURES IN CELSIUS
  WCI - WIND CHILL INDEX
   HX - HEAT INDEX
  VSB - VISIBILITY
$$



USA.gov is the U.S. government's official web portal to all federal, state and local government web resources and services.